User: anonymous   Login
Location: Walnut Point State Park
(39.6958°N, 88.0345°W)
Time: 02:02:32
(UTC-06:00)
Language:

ATLAS 3B R/B - Orbit

View from above orbital plane
View from above orbital plane
View from above satellite
View from above satellite

Ground track
Ground track

The orbit data is extracted from the following two-line orbital elements,

1 28538U 05004B   16034.18105090 0.00000000  00000-0  00000-0 0    06
2 28538  63.8168 117.2078 0177000 211.5354 148.4646 13.43076166    02
Epoch (UTC): 03 February 2016 04:20:42
Eccentricity: 0.0177000
inclination: 63.8168°
perigee height: 965 km
apogee height: 1230 km
right ascension of ascending node: 117.2078°
argument of perigee: 211.5354°
revolutions per day: 13.43076166
mean anomaly at epoch: 148.4646°
orbit number at epoch: 0

The dashed part of the orbit path shows where the satellite is in the earth's shadow,  

DLR